Location: Baix
(44.7118°N, 4.7648°E)
Time: 01:09:54
(UTC+00:00)

CZ-2D R/B - Pass Details

Date: 07 August 2020
Orbit: 792 x 845 km, 98.7° (Epoch: 19 September)

Event Time Altitude Azimuth Distance (km) Brightness Sun altitude
Rises 00:30:03 0° 23° (NNE) 3,409 6.6 -28.2°
Reaches altitude 10° 00:32:42 10° 33° (NNE) 2,473 5.5 -28.1°
Maximum altitude 00:37:33 31° 95° (E) 1,432 3.4 -27.9°
Enters shadow 00:38:04 31° 106° (ESE) 1,448 3.3 -27.8°
